Tracking 19177 objects as of 24-May-2018
HD Live streaming from Space Station
objects crossing your sky now

COSMOS 2368

Track COSMOS 2368 now!
COSMOS 2368 is classified as:


NORAD ID: 26042
Int'l Code: 1999-073A
Perigee: 3,817.8 km
Apogee: 36,609.5 km
Inclination: 66.9 °
Period: 719.0 minutes
Semi major axis: 26584 km
RCS: 7.9432 m2 (large)
Launch date: December 27, 1999
Source: Commonwealth of Independent States (former USSR) (CIS)
Launch site: PLESETSK MISSILE AND SPACE COMPLEX (PKMTR)
aabbcc
Your satellite tracking list
Your tracking list is empty




NASA's NSSDC Master Catalog

Two Line Element Set (TLE):
1 26042U 99073A   18143.64921160 +.00000175 +00000-0 +00000-0 0  9991
2 26042 066.9273 152.4349 6167396 219.9340 091.1192 02.00288750134815
Source of the keplerian elements: AFSPC